Regional Weather Roundup
Issued by NWS Nashville, TN

Home | Current Version | Previous Version | Text Only | Print | Product List | Glossary On
Versions: 1 2 3 4 5 6 7 8 9 10 11 12 13 14 15 16 17 18 19 20 21 22 23 24 25 26 27 28 29 30 31 32 33 34 35 36 37 38 39 40 41 42 43 44 45 46 47 48 49 50
000
ASUS44 KOHX 060715
RWROHX
MIDDLE TENNESSEE HOURLY WEATHER ROUNDUP
NATIONAL WEATHER SERVICE NASHVILLE TN
200 AM CDT WED MAY 06 2015

NOTE: "FAIR" INDICATES FEW OR NO CLOUDS BELOW 12,000 FEET WITH
NO SIGNIFICANT WEATHER AND/OR OBSTRUCTIONS TO VISIBILITY.

* THESE REPORTS ARE NOT UNDER NWS QUALITY CONTROL AND MAY NOT
  REPORT WEATHER SUCH AS PRECIPITATION AND FOG.


TNZ005>011-023>034-057-059-062>066-078-080-060800
...NORTHERN MIDDLE TENNESSEE...

CITY           SKY/WX    TMP DP  RH WIND       PRES   REMARKS
CLARKSVILLE    CLEAR     57  56  96 SE3       30.19F
CROSSVILLE     CLOUDY    67  53  61 CALM      30.26F
LIVINGSTON     MOCLDY    71  52  51 CALM      30.23F
NASHVILLE      CLOUDY    64  58  80 S3        30.20F
PORTLAND       MOCLDY    61  57  88 CALM      30.20F
ROCKWOOD       MOCLDY    65  57  75 CALM      30.25F
SMYRNA         PTCLDY    63  59  87 CALM      30.21F
SPARTA         PTCLDY    63  61  94 CALM      30.22S
$$
TNZ056-058-060-061-075>077-079-093>097-060800
...SOUTHERN MIDDLE TENNESSEE...

CITY           SKY/WX    TMP DP  RH WIND       PRES   REMARKS
COLUMBIA       PTCLDY    57  55  94 CALM      30.19F
LEWISBURG      MOCLDY    56  53  89 CALM      30.20F
MCMINNVILLE    CLOUDY    63  63 100 CALM      30.23S
SHELBYVILLE    PTCLDY    63  59  88 E3        30.22F
TULLAHOMA      PTCLDY    57  54  88 CALM      30.23F
WINCHESTER     CLEAR     63  55  77 CALM      30.23S
$$


...KEY TO REMARKS...
VSB - VISIBILITY IN MILES
WCI - WIND CHILL INDEX
HX  - HEAT INDEX



USA.gov is the U.S. government's official web portal to all federal, state and local government web resources and services.